Location: Chèvreville
(49.1099°N, 2.8495°E)
Time: 23:43:25
(UTC+00:00)

ATLAS CENTAUR R/B - Pass Details

Date: 28 January 2023
Orbit: 450 x 653 km, 64.7° (Epoch: 19 March)

Event Time Altitude Azimuth Distance (km) Brightness Sun altitude
Rises 19:11:38 0° 232° (SW) 2,982 5.8 -25.0°
Reaches altitude 10° 19:14:01 10° 237° (WSW) 2,063 4.9 -25.4°
Maximum altitude 19:18:38 54° 315° (NW) 781 2.2 -26.1°
Enters shadow 19:19:06 51° 339° (NNW) 803 2.1 -26.2°
